カタログに戻る

DELTA 1 DEB

YO

運用中LEO
NORAD 167·DEBRIS·🇺🇸 United States

打ち上げ Jul 12, 1961 から Cape Canaveral Space Force Station

Loading…

次のパス (今後24時間)

TLE

最新Source: Space-Track

元期: Sep 3, 2026, 13:10 UTC

1   167U 61017D   26246.54906816 -.00000046  00000-0  44916-4 0  9997
2   167  47.8446  63.1541 0089832  73.1272 287.9439 14.24198027375848

AllMySatでDELTA 1 DEBをリアルタイム追跡

Download on the App Store